Flag for Chile Weather past 2 weeks in Iquique, Chile

Now
63 °F

Partly sunny.


Feels Like: 63 °F
Forecast: N/A
Wind: 13 mph from Southwest

Location: Iquique / Diego Arac

Current Time: Sep 21, 2014 at 5:50:10 PM

Latest Report: Sep 21, 2014 at 5:00 PM


Visibility: N/A

Pressure: 29.98 "Hg

Humidity: 64%

Dew point: 50 °F

Location of IquiqueLocation

Historic Weather in Iquique — Graph

°F

Iquique temperature yesterday

Maximum temperature yesterday: 64 °F (at 4:00 PM)
Minimum temperature yesterday: 57 °F (at 4:00 AM)
Average temperature yesterday: 60 °F

Past Weeks' High & Low Weather Summary

 TemperatureHumidityPressure
High66 °F (Sep 12, 1:00 PM)94% (Sep 8, 8:00 PM)30.12 "Hg (Sep 8, 8:00 PM)
Low55 °F (Sep 14, 8:00 AM)56% (Sep 12, 1:00 PM)29.86 "Hg (Sep 11, 5:00 PM)
Average61 °F74%30.01 "Hg
* Reported Sep 6 3:00 PM — Sep 21 4:00 PM, Iquique, Weather by CustomWeather, © 2014

Note: Actual official high and low records may vary slightly from our data, if they occured in-between our weather recording intervals... More about our weather records

Advertising

Iquique weather history for previous 24 hours

 ConditionsComfort  
Time TempWeatherWind HumidityBarometerVisibility
4:00 PM
Sep 21
63 °FPartly sunny.13 mph64%29.98 "HgN/A
3:00 PM63 °FScattered clouds.10 mph64%30.01 "HgN/A
2:00 PM63 °FScattered clouds.9 mph64%30.01 "HgN/A
1:00 PM61 °FPassing clouds.13 mph68%30.04 "HgN/A
12:00 PM63 °FScattered clouds.12 mph64%30.04 "HgN/A
11:00 AM61 °FPartly sunny.1 mph63%30.04 "HgN/A
10:00 AM61 °FPartly sunny.2 mph63%30.04 "HgN/A
9:00 AM59 °FOvercast.2 mph68%30.04 "HgN/A
8:00 AM59 °FPartly sunny.5 mph68%30.01 "HgN/A
7:00 AM59 °FOvercast.7 mph68%30.01 "HgN/A
6:00 AM59 °FOvercast.8 mph68%29.98 "HgN/A
5:00 AM59 °FOvercast.5 mph72%29.98 "HgN/A
4:00 AM59 °FOvercast.2 mph72%29.98 "HgN/A
3:00 AM59 °FOvercast.2 mph77%29.98 "HgN/A
2:00 AM59 °FOvercast.2 mph72%30.01 "HgN/A
1:00 AM61 °FOvercast.2 mph68%30.01 "HgN/A
12:00 AM61 °FOvercast.7 mph68%30.01 "HgN/A
11:00 PM
Sep 20
61 °FOvercast.3 mph72%30.01 "HgN/A
10:00 PM61 °FOvercast.5 mph72%30.01 "HgN/A
9:00 PM61 °FOvercast.7 mph77%29.98 "HgN/A
8:00 PM61 °FPassing clouds.9 mph77%29.95 "HgN/A
7:00 PM61 °FPassing clouds.15 mph72%29.95 "HgN/A
6:00 PM61 °FPassing clouds.16 mph72%29.92 "HgN/A
5:00 PM63 °FPassing clouds.17 mph68%29.92 "HgN/A
Weather by CustomWeather, © 2014

See weather overviewHow to use our weather pages